| time (UTC) | temp C | wind direction | speed KPH | gust KPH | rain 1hr cm | rain 24hr cm | rain mn cm | humidity % | barometer mb |
| 20260504081558 | 7 | 250 | 0.0 | 0.0 | 0.00 | 0.00 | 0.00 | 68 | 1013.5 |
| 20260504081100 | 7 | 250 | 0.0 | 0.0 | 0.00 | 0.00 | 0.00 | 67 | 1013.5 |
| 20260504080830 | 8 | 250 | 0.0 | 0.0 | 0.00 | 0.00 | 0.00 | 67 | 1013.4 |
| 20260504050658 | 10 | 250 | 0.0 | 0.0 | 0.00 | 0.00 | 0.00 | 60 | 1013.5 |
| 20260504045920 | 10 | 250 | 0.0 | 0.0 | 0.00 | 0.00 | 0.00 | 59 | 1013.5 |
| 20260504045408 | 10 | 250 | 0.0 | 0.0 | 0.00 | 0.00 | 0.00 | 59 | 1013.6 |
| 20260504044907 | 10 | 250 | 0.0 | 0.0 | 0.00 | 0.00 | 0.00 | 59 | 1013.5 |
| 20260504044638 | 10 | 250 | 0.0 | 0.0 | 0.00 | 0.00 | 0.00 | 57 | 1013.6 |
| 20260504043908 | 11 | 250 | 0.0 | 0.0 | 0.00 | 0.00 | 0.00 | 56 | 1013.6 |
| 20260504043408 | 11 | 250 | 0.0 | 0.0 | 0.00 | 0.00 | 0.00 | 55 | 1013.5 |
| 20260504042906 | 11 | 250 | 0.0 | 0.0 | 0.00 | 0.00 | 0.00 | 56 | 1013.5 |
| 20260504042639 | 11 | 250 | 0.0 | 0.0 | 0.00 | 0.00 | 0.00 | 54 | 1013.5 |
| 20260504041904 | 11 | 250 | 0.0 | 0.0 | 0.00 | 0.00 | 0.00 | 55 | 1013.4 |
| 20260504041404 | 11 | 250 | 0.0 | 0.0 | 0.00 | 0.00 | 0.00 | 56 | 1013.5 |
| 20260504040903 | 11 | 250 | 0.0 | 0.0 | 0.00 | 0.00 | 0.00 | 55 | 1013.4 |
| 20260504040405 | 11 | 250 | 0.0 | 1.6 | 0.00 | 0.00 | 0.00 | 55 | 1013.4 |
| 20260504035903 | 11 | 250 | 0.0 | 1.6 | 0.00 | 0.00 | 0.00 | 56 | 1013.4 |
| 20260504035354 | 11 | 250 | 0.0 | 0.0 | 0.00 | 0.00 | 0.00 | 56 | 1013.3 |
| 20260504034851 | 11 | 250 | 0.0 | 1.6 | 0.00 | 0.00 | 0.00 | 57 | 1013.3 |
| 20260504034343 | 11 | 250 | 0.0 | 1.6 | 0.00 | 0.00 | 0.00 | 56 | 1013.3 |
| 20260504033838 | 11 | 251 | 0.0 | 0.0 | 0.00 | 0.00 | 0.00 | 56 | 1013.2 |
| 20260504033327 | 11 | 251 | 0.0 | 0.0 | 0.00 | 0.00 | 0.00 | 56 | 1013.2 |
| 20260504032826 | 11 | 251 | 0.0 | 0.0 | 0.00 | 0.00 | 0.00 | 54 | 1013.2 |
| 20260504032320 | 11 | 251 | 0.0 | 3.2 | 0.00 | 0.00 | 0.00 | 53 | 1013.1 |
| 20260504031815 | 11 | 251 | 0.0 | 3.2 | 0.00 | 0.00 | 0.00 | 52 | 1013.1 |
| 20260504031304 | 11 | 251 | 0.0 | 3.2 | 0.00 | 0.00 | 0.00 | 53 | 1013.1 |
| 20260504030758 | 11 | 251 | 0.0 | 0.0 | 0.00 | 0.00 | 0.00 | 54 | 1013.0 |
| 20260504030255 | 10 | 251 | 0.0 | 0.0 | 0.00 | 0.00 | 0.00 | 56 | 1013.0 |
| 20260504025747 | 10 | 251 | 0.0 | 0.0 | 0.00 | 0.00 | 0.00 | 59 | 1013.0 |
| 20260504025241 | 11 | 251 | 0.0 | 0.0 | 0.00 | 0.00 | 0.00 | 58 | 1012.9 |
| 20260504025000 | 11 | 251 | 0.0 | 0.0 | 0.00 | 0.00 | 0.00 | 57 | 1013.0 |
| 20260504024456 | 11 | 251 | 0.0 | 0.0 | 0.00 | 0.00 | 0.00 | 55 | 1013.0 |
| 20260504023949 | 12 | 251 | 0.0 | 0.0 | 0.00 | 0.00 | 0.00 | 53 | 1013.0 |
| 20260504023211 | 12 | 251 | 0.0 | 6.4 | 0.00 | 0.00 | 0.00 | 51 | 1013.1 |
| 20260504022705 | 11 | 251 | 0.0 | 6.4 | 0.00 | 0.00 | 0.00 | 52 | 1013.1 |
| 20260504022159 | 11 | 251 | 0.0 | 0.0 | 0.00 | 0.00 | 0.00 | 54 | 1013.1 |
| 20260504021916 | 11 | 251 | 0.0 | 0.0 | 0.00 | 0.00 | 0.00 | 57 | 1013.1 |
| 20260504021146 | 11 | 251 | 0.0 | 0.0 | 0.00 | 0.00 | 0.00 | 58 | 1013.1 |
| 20260504020633 | 11 | 251 | 0.0 | 0.0 | 0.00 | 0.00 | 0.00 | 56 | 1013.1 |
| 20260504020135 | 11 | 251 | 0.0 | 0.0 | 0.00 | 0.00 | 0.00 | 56 | 1013.1 |
| 20260504015629 | 11 | 251 | 0.0 | 0.0 | 0.00 | 0.00 | 0.00 | 55 | 1013.1 |
| 20260504015123 | 12 | 251 | 0.0 | 0.0 | 0.00 | 0.00 | 0.00 | 52 | 1013.1 |
| 20260504014616 | 11 | 251 | 0.0 | 0.0 | 0.00 | 0.00 | 0.00 | 53 | 1013.0 |
| 20260504014337 | 11 | 251 | 0.0 | 0.0 | 0.00 | 0.00 | 0.00 | 55 | 1013.0 |
| 20260504013604 | 11 | 251 | 0.0 | 0.0 | 0.00 | 0.00 | 0.00 | 56 | 1012.9 |
| 20260504013059 | 11 | 251 | 0.0 | 0.0 | 0.00 | 0.00 | 0.00 | 57 | 1012.9 |
| 20260504012544 | 11 | 251 | 0.0 | 0.0 | 0.00 | 0.00 | 0.00 | 57 | 1012.9 |
| 20260504012040 | 11 | 251 | 0.0 | 0.0 | 0.00 | 0.00 | 0.00 | 57 | 1012.9 |
| 20260504011533 | 11 | 251 | 0.0 | 0.0 | 0.00 | 0.00 | 0.00 | 56 | 1012.8 |
| 20260504011026 | 11 | 251 | 0.0 | 0.0 | 0.00 | 0.00 | 0.00 | 57 | 1012.7 |
| 20260504010752 | 12 | 251 | 0.0 | 0.0 | 0.00 | 0.00 | 0.00 | 55 | 1012.7 |
| 20260504010014 | 12 | 251 | 0.0 | 0.0 | 0.00 | 0.00 | 0.00 | 53 | 1012.8 |
| 20260504005504 | 12 | 251 | 0.0 | 0.0 | 0.00 | 0.00 | 0.00 | 51 | 1012.8 |
| 20260504005004 | 12 | 251 | 0.0 | 0.0 | 0.00 | 0.00 | 0.00 | 50 | 1012.8 |
| 20260504004451 | 12 | 251 | 0.0 | 0.0 | 0.00 | 0.00 | 0.00 | 49 | 1012.7 |
| 20260504003953 | 13 | 251 | 0.0 | 0.0 | 0.00 | 0.00 | 0.00 | 48 | 1012.6 |
| 20260504003447 | 13 | 251 | 0.0 | 0.0 | 0.00 | 0.00 | 0.00 | 48 | 1012.6 |
| 20260504002940 | 13 | 251 | 0.0 | 0.0 | 0.00 | 0.00 | 0.00 | 48 | 1012.6 |
| 20260504002435 | 13 | 251 | 0.0 | 0.0 | 0.00 | 0.00 | 0.00 | 48 | 1012.5 |
| 20260504001922 | 13 | 251 | 0.0 | 0.0 | 0.00 | 0.00 | 0.00 | 48 | 1012.5 |
| 20260504001423 | 13 | 251 | 0.0 | 0.0 | 0.00 | 0.00 | 0.00 | 48 | 1012.4 |
| 20260504001148 | 13 | 251 | 0.0 | 0.0 | 0.00 | 0.00 | 0.00 | 47 | 1012.3 |
| 20260504000404 | 13 | 251 | 0.0 | 0.0 | 0.00 | 0.00 | 0.00 | 47 | 1012.3 |
| 20260504000132 | 14 | 251 | 0.0 | 6.4 | 0.00 | 0.00 | 0.00 | 45 | 1012.2 |
| 20260503235355 | 14 | 251 | 0.0 | 6.4 | 0.00 | 0.00 | 0.00 | 44 | 1012.1 |
| 20260503234842 | 14 | 252 | 0.0 | 1.6 | 0.00 | 0.00 | 0.00 | 44 | 1012.1 |
| 20260503234342 | 15 | 252 | 0.0 | 1.6 | 0.00 | 0.00 | 0.00 | 43 | 1012.1 |
| 20260503233837 | 15 | 252 | 0.0 | 11.3 | 0.00 | 0.00 | 0.00 | 43 | 1012.0 |
| 20260503233330 | 15 | 252 | 1.6 | 17.7 | 0.00 | 0.00 | 0.00 | 43 | 1012.0 |
| 20260503232825 | 15 | 244 | 3.2 | 17.7 | 0.00 | 0.00 | 0.00 | 41 | 1012.0 |
| 20260503232318 | 15 | 257 | 1.6 | 12.9 | 0.00 | 0.00 | 0.00 | 42 | 1012.0 |
| 20260503231813 | 15 | 243 | 0.0 | 12.9 | 0.00 | 0.00 | 0.00 | 42 | 1012.0 |
| 20260503231302 | 15 | 246 | 1.6 | 14.5 | 0.00 | 0.00 | 0.00 | 43 | 1011.9 |
| 20260503230801 | 15 | 248 | 3.2 | 14.5 | 0.00 | 0.00 | 0.00 | 42 | 1011.9 |
| 20260503230525 | 15 | 242 | 0.0 | 12.9 | 0.00 | 0.00 | 0.00 | 42 | 1011.9 |
| 20260503225749 | 15 | 253 | 0.0 | 3.2 | 0.00 | 0.00 | 0.00 | 43 | 1011.8 |
| 20260503225243 | 15 | 253 | 1.6 | 14.5 | 0.00 | 0.00 | 0.00 | 42 | 1011.8 |
| 20260503225003 | 15 | 254 | 1.6 | 14.5 | 0.00 | 0.00 | 0.00 | 41 | 1011.9 |
| 20260503224851 | 16 | 247 | 1.6 | 14.5 | 0.00 | 0.00 | 0.00 | 41 | 1011.9 |
| 20260503223724 | 16 | 261 | 1.6 | 14.5 | 0.00 | 0.00 | 0.00 | 41 | 1011.9 |
| 20260503223218 | 16 | 248 | 1.6 | 14.5 | 0.00 | 0.00 | 0.00 | 41 | 1011.8 |
| 20260503222713 | 16 | 248 | 1.6 | 14.5 | 0.00 | 0.00 | 0.00 | 42 | 1011.8 |
| 20260503222437 | 16 | 244 | 1.6 | 12.9 | 0.00 | 0.00 | 0.00 | 41 | 1011.8 |
| 20260503221701 | 16 | 250 | 1.6 | 11.3 | 0.00 | 0.00 | 0.00 | 41 | 1011.8 |
| 20260503221150 | 16 | 254 | 1.6 | 11.3 | 0.00 | 0.00 | 0.00 | 42 | 1011.9 |
| 20260503220649 | 16 | 256 | 0.0 | 9.7 | 0.00 | 0.00 | 0.00 | 40 | 1011.9 |
| 20260503220143 | 16 | 252 | 0.0 | 9.7 | 0.00 | 0.00 | 0.00 | 42 | 1012.0 |
| 20260503215908 | 16 | 246 | 1.6 | 11.3 | 0.00 | 0.00 | 0.00 | 43 | 1011.9 |
| 20260503215131 | 16 | 246 | 1.6 | 14.5 | 0.00 | 0.00 | 0.00 | 41 | 1011.9 |
| 20260503214620 | 16 | 265 | 1.6 | 16.1 | 0.00 | 0.00 | 0.00 | 40 | 1011.9 |
| 20260503214119 | 16 | 261 | 1.6 | 16.1 | 0.00 | 0.00 | 0.00 | 40 | 1011.8 |
| 20260503213613 | 16 | 247 | 1.6 | 16.1 | 0.00 | 0.00 | 0.00 | 42 | 1011.8 |
| 20260503213107 | 16 | 255 | 3.2 | 16.1 | 0.00 | 0.00 | 0.00 | 42 | 1011.8 |
| 20260503212601 | 16 | 254 | 3.2 | 16.1 | 0.00 | 0.00 | 0.00 | 42 | 1011.7 |
| 20260503212322 | 16 | 244 | 1.6 | 16.1 | 0.00 | 0.00 | 0.00 | 41 | 1011.8 |
| 20260503211820 | 16 | 251 | 1.6 | 16.1 | 0.00 | 0.00 | 0.00 | 42 | 1011.8 |
| 20260503211043 | 16 | 250 | 3.2 | 22.5 | 0.00 | 0.00 | 0.00 | 39 | 1011.8 |
| 20260503210537 | 16 | 250 | 3.2 | 22.5 | 0.00 | 0.00 | 0.00 | 41 | 1011.8 |
| 20260503210031 | 16 | 280 | 3.2 | 16.1 | 0.00 | 0.00 | 0.00 | 44 | 1011.8 |
| 20260503205525 | 16 | 255 | 1.6 | 11.3 | 0.00 | 0.00 | 0.00 | 42 | 1011.8 |
| 20260503205018 | 16 | 259 | 3.2 | 17.7 | 0.00 | 0.00 | 0.00 | 43 | 1011.7 |
| 20260503204508 | 16 | 259 | 4.8 | 17.7 | 0.00 | 0.00 | 0.00 | 42 | 1011.8 |
| 20260503204007 | 16 | 237 | 4.8 | 19.3 | 0.00 | 0.00 | 0.00 | 42 | 1011.8 |
| 20260503203501 | 16 | 271 | 3.2 | 19.3 | 0.00 | 0.00 | 0.00 | 42 | 1011.9 |
| 20260503202955 | 15 | 250 | 3.2 | 19.3 | 0.00 | 0.00 | 0.00 | 44 | 1011.8 |
| 20260503202449 | 15 | 249 | 3.2 | 19.3 | 0.00 | 0.00 | 0.00 | 42 | 1011.9 |
| 20260503201936 | 16 | 257 | 3.2 | 19.3 | 0.00 | 0.00 | 0.00 | 40 | 1011.9 |
| 20260503201437 | 15 | 254 | 1.6 | 17.7 | 0.00 | 0.00 | 0.00 | 44 | 1011.9 |
| 20260503200931 | 15 | 257 | 1.6 | 12.9 | 0.00 | 0.00 | 0.00 | 42 | 1011.9 |
| 20260503200425 | 15 | 262 | 3.2 | 17.7 | 0.00 | 0.00 | 0.00 | 42 | 1012.0 |
| 20260503200149 | 15 | 261 | 3.2 | 17.7 | 0.00 | 0.00 | 0.00 | 41 | 1012.2 |
| 20260503195413 | 15 | 240 | 3.2 | 14.5 | 0.00 | 0.00 | 0.00 | 44 | 1012.1 |
| 20260503194906 | 15 | 254 | 1.6 | 11.3 | 0.00 | 0.00 | 0.00 | 45 | 1012.2 |
| 20260503194354 | 15 | 248 | 1.6 | 11.3 | 0.00 | 0.00 | 0.00 | 42 | 1012.3 |
| 20260503193855 | 15 | 254 | 0.0 | 11.3 | 0.00 | 0.00 | 0.00 | 44 | 1012.4 |
| 20260503193349 | 15 | 252 | 0.0 | 11.3 | 0.00 | 0.00 | 0.00 | 46 | 1012.4 |
| 20260503192842 | 15 | 255 | 1.6 | 11.3 | 0.00 | 0.00 | 0.00 | 45 | 1012.5 |
| 20260503192337 | 14 | 257 | 1.6 | 16.1 | 0.00 | 0.00 | 0.00 | 45 | 1012.7 |
| 20260503191827 | 14 | 234 | 3.2 | 17.7 | 0.00 | 0.00 | 0.00 | 46 | 1012.6 |
| 20260503191324 | 15 | 246 | 1.6 | 17.7 | 0.00 | 0.00 | 0.00 | 44 | 1012.6 |
| 20260503190820 | 15 | 252 | 1.6 | 12.9 | 0.00 | 0.00 | 0.00 | 43 | 1012.7 |
| 20260503190312 | 15 | 252 | 1.6 | 12.9 | 0.00 | 0.00 | 0.00 | 42 | 1012.8 |
| 20260503185808 | 15 | 257 | 1.6 | 16.1 | 0.00 | 0.00 | 0.00 | 44 | 1012.8 |
| 20260503185532 | 15 | 258 | 1.6 | 17.7 | 0.00 | 0.00 | 0.00 | 41 | 1012.9 |
| 20260503184756 | 14 | 229 | 1.6 | 17.7 | 0.00 | 0.00 | 0.00 | 46 | 1013.0 |
| 20260503184241 | 15 | 259 | 1.6 | 16.1 | 0.00 | 0.00 | 0.00 | 42 | 1013.1 |
| 20260503183742 | 15 | 241 | 3.2 | 16.1 | 0.00 | 0.00 | 0.00 | 42 | 1013.0 |
| 20260503183236 | 14 | 336 | 3.2 | 16.1 | 0.00 | 0.00 | 0.00 | 44 | 1013.1 |
| 20260503182730 | 14 | 277 | 1.6 | 16.1 | 0.00 | 0.00 | 0.00 | 43 | 1013.2 |
| 20260503182224 | 14 | 259 | 1.6 | 14.5 | 0.00 | 0.00 | 0.00 | 44 | 1013.2 |
| 20260503181715 | 14 | 256 | 1.6 | 14.5 | 0.00 | 0.00 | 0.00 | 43 | 1013.2 |
| 20260503181218 | 14 | 269 | 3.2 | 20.9 | 0.00 | 0.00 | 0.00 | 45 | 1013.3 |
| 20260503181213 | 14 | 327 | 3.2 | 20.9 | 0.00 | 0.00 | 0.00 | 45 | 1013.1 |
| 20260503180201 | 14 | 251 | 1.6 | 14.5 | 0.00 | 0.00 | 0.00 | 48 | 1013.2 |
| 20260503175654 | 14 | 250 | 1.6 | 11.3 | 0.00 | 0.00 | 0.00 | 48 | 1013.3 |
| 20260503175148 | 13 | 240 | 1.6 | 17.7 | 0.00 | 0.00 | 0.00 | 47 | 1013.3 |
| 20260503174643 | 13 | 261 | 4.8 | 17.7 | 0.00 | 0.00 | 0.00 | 49 | 1013.4 |
| 20260503174132 | 13 | 255 | 6.4 | 17.7 | 0.00 | 0.00 | 0.00 | 44 | 1013.5 |
| 20260503173630 | 13 | 257 | 6.4 | 17.7 | 0.00 | 0.00 | 0.00 | 46 | 1013.4 |
| 20260503173125 | 13 | 252 | 4.8 | 17.7 | 0.00 | 0.00 | 0.00 | 47 | 1013.4 |
| 20260503172623 | 13 | 251 | 1.6 | 17.7 | 0.00 | 0.00 | 0.00 | 48 | 1013.6 |
| 20260503172112 | 13 | 267 | 0.0 | 11.3 | 0.00 | 0.00 | 0.00 | 50 | 1013.6 |
| 20260503171602 | 13 | 267 | 3.2 | 16.1 | 0.00 | 0.00 | 0.00 | 52 | 1013.6 |
| 20260503171100 | 13 | 229 | 3.2 | 16.1 | 0.00 | 0.00 | 0.00 | 47 | 1013.7 |
| 20260503170555 | 12 | 252 | 3.2 | 16.1 | 0.00 | 0.00 | 0.00 | 48 | 1013.7 |
| 20260503150837 | 10 | 355 | 3.2 | 17.7 | 0.00 | 0.00 | 0.00 | 50 | 1014.5 |
| 20260503150331 | 10 | 258 | 3.2 | 17.7 | 0.00 | 0.00 | 0.00 | 48 | 1014.6 |
| 20260503131114 | 7 | 254 | 3.2 | 19.3 | 0.00 | 0.00 | 0.00 | 63 | 1015.0 |
| 20260503130612 | 7 | 258 | 1.6 | 19.3 | 0.00 | 0.00 | 0.00 | 64 | 1015.0 |
| 20260503130107 | 7 | 258 | 3.2 | 12.9 | 0.00 | 0.00 | 0.00 | 64 | 1014.9 |
| 20260503110348 | 5 | 265 | 0.0 | 3.2 | 0.00 | 0.00 | 0.00 | 71 | 1014.2 |
| 20260503100236 | 5 | 261 | 0.0 | 0.0 | 0.00 | 0.00 | 0.00 | 71 | 1013.1 |